NTS (CANX-6)

Last updated on Tue Mar 29 2016 17:38:26 GMT+0000 (Coordinated Universal Time)

1 32784U 08021B 16088.84423531 .00000379 00000-0 49050-4 0 9999 2 32784 97.6130 123.1784 0013901 201.7510 158.3117 14.86118201428392
UTC large
Height (km)
Speed (km/s)
/
Latitude / Longitude
Inclination (degrees)
Orbital Period (minutes)
Azimuth
Elevation
Range (km)
Doppler Factor

Next 0 passes for location: London (51.5072 / 0.1276)

Sorry there are no passes over London.